Погода в Сухмени

Россия / Курганская область     54°52′28″N   66°35′09″E
темп.,
°C
ветер,
м/с
пор.,
м/с
влажн.,
%
обл.,
%
осадки,
мм/ч
давл.,
гПа
погр.,
м
11 апреля, вс
вс1123:00+1ююв36955 0.0 1040105
02:000ююв33925 0.0 104052
05:00−1ююв34905 0.0 104063
08:00−2ююв36905 0.0 1041122
11:00+1ю369734 0.0 1041192
14:00+3ю369260 0.0 1040187
17:00+3ю3792100 0.0 1039180
20:000ю4787100 0.0 1038106
12 апреля, пн
пн1223:00−1ююз488599 0.0 1038129
02:00−1юз398430 0.0 1037146
05:00−1юз488253 0.0 1037136
08:00+2зюз397852 0.0 1036198
11:00+6з467383 0.0 1036275
14:00+9зсз357698 0.0 1036358
17:00+8зсз2289100 0.0 103627
20:00+6с3597100 0.0 103777
13 апреля, вт
вт1323:00+5ссв3393100 0.0 103830
02:00+4ссв3389100 0.0 103939
05:00+3св33880 0.0 104027
08:00+5всв24830 0.0 1040116
11:00+9всв23660 0.0 1041498
14:00+11в11530 0.0 1040859
17:00+11ю11500 0.0 1039837
20:00+9юв11640 0.0 103810
14 апреля, ср
ср1423:00+7ююз33740 0.0 103828
02:00+5ююз34850 0.0 103646
05:00+4юз33840 0.0 103640
08:00+6юз35775 0.0 1035156
11:00+11юз45585 0.0 1033523
14:00+14зюз45435 0.0 1031840
17:00+15зюз454410 0.0 1029851
20:00+11зюз33605 0.0 102822
15 апреля, чт
чт1523:00+9зюз33675 0.0 102837
02:00+8зюз33735 0.0 102739
05:00+6зюз33775 0.0 102639
08:00+9зюз35715 0.0 1025153
11:00+14зюз44566 0.0 1024477
14:00+17з445062 0.0 1022909
17:00+17з444927 0.0 1020986
20:00+13зюз33645 0.0 102023